Marshall, TX

8:32 PM CDT on October 19, 2019 (GMT -0500)
Harrison County

Weather History for KASL - August, 2019

Change the Weather History Date:

Tuesday, August 13, 2019

  Actual Average (KGGG) Record (KGGG)
Temperature  
Mean Temperature 86 °F -  
Max Temperature 97 °F 91 °F 107 °F (1962)
Min Temperature 74 °F 70 °F 54 °F (1967)
Cooling Degree Days 20    
Growing Degree Days 36 (Base 50)    
Moisture  
Dew Point 72 °F    
Average Humidity 67    
Maximum Humidity 92    
Minimum Humidity 36    
Precipitation  
Precipitation 0.00 in - - ()
Sea Level Pressure  
Sea Level Pressure 29.93 in    
Wind  
Wind Speed 1 mph (SW)    
Max Wind Speed 8 mph    
Max Gust Speed -    
Visibility 10 miles    
Events      
Averages and records for this station are not official NWS values.
T = Trace of Precipitation, MM = Missing Value Source: NWS Daily Summary

Daily Weather History Graph

Daily Weather History Graph

Search for Another Location

Airport or City:

Astronomy

Aug. 13, 2019 Rise Set
Actual Time 6:39 AM CDT 8:04 PM CDT
Civil Twilight 6:13 AM CDT 8:30 PM CDT
Nautical Twilight 5:42 AM CDT 9:01 PM CDT
Astronomical Twilight 5:09 AM CDT 9:33 PM CDT
Moon 7:13 PM CDT (8/13) 4:49 AM CDT (8/13)
Length of Visible Light 14h 16m
Length of Day
13h 24m
Waxing Gibbous, 97% of the Moon is Illuminated
Aug 13
Waxing Gibbous
Aug 15
Full
Aug 23
Last Quarter
Aug 30
New
Sep 5
First Quarter

Hourly Weather History & Observations

Time (CDT) Temp. Heat Index Dew Point Humidity Pressure Visibility Wind Dir Wind Speed Gust Speed Precip Events Conditions
12:15 AM 76.3 °F - 71.8 °F 86% 29.92 in 10.0 mi North - - N/A   Clear
12:35 AM 77.2 °F - 72.1 °F 84% 29.91 in 10.0 mi Calm Calm - N/A   Clear
12:55 AM 76.6 °F - 71.8 °F 85% 29.91 in 10.0 mi North - - N/A   Clear
1:15 AM 76.3 °F - 71.8 °F 86% 29.91 in 10.0 mi Calm Calm - N/A   Clear
1:35 AM 76.3 °F - 71.8 °F 86% 29.91 in 10.0 mi Calm Calm - N/A   Clear
1:55 AM 75.7 °F - 71.4 °F 86% 29.91 in 10.0 mi North - - N/A   Clear
2:15 AM 76.3 °F - 72.0 °F 86% 29.90 in 10.0 mi North - - N/A   Clear
2:35 AM 76.3 °F - 71.8 °F 86% 29.90 in 10.0 mi North - - N/A   Clear
2:55 AM 76.3 °F - 72.0 °F 86% 29.91 in 10.0 mi Calm Calm - N/A   Clear
3:15 AM 76.3 °F - 72.0 °F 86% 29.90 in 10.0 mi North - - N/A   Clear
3:35 AM 76.1 °F - 72.1 °F 87% 29.91 in 10.0 mi North - - N/A   Clear
3:55 AM 75.4 °F - 71.4 °F 87% 29.91 in 10.0 mi North - - N/A   Clear
4:15 AM 75.2 °F - 71.8 °F 89% 29.91 in 10.0 mi North - - N/A   Clear
4:35 AM 75.0 °F - 71.8 °F 90% 29.91 in 10.0 mi North - - N/A   Clear
4:55 AM 75.2 °F - 72.1 °F 90% 29.91 in 10.0 mi North - - N/A   Clear
5:15 AM 75.2 °F - 72.1 °F 90% 29.92 in 10.0 mi North - - N/A   Clear
5:35 AM 75.2 °F - 72.1 °F 90% 29.92 in 10.0 mi North - - N/A   Clear
5:55 AM 75.2 °F - 72.1 °F 90% 29.93 in 10.0 mi North - - N/A   Clear
6:15 AM 75.2 °F - 72.1 °F 90% 29.93 in 10.0 mi North - - N/A   Clear
6:35 AM 75.2 °F - 72.1 °F 90% 29.95 in 10.0 mi North - - N/A   Clear
6:55 AM 74.8 °F - 72.3 °F 92% 29.95 in 10.0 mi North - - N/A   Clear
7:15 AM 75.2 °F - 72.5 °F 91% 29.96 in 10.0 mi North - - N/A   Clear
7:35 AM 75.2 °F - 72.5 °F 91% 29.96 in 10.0 mi North - - N/A   Clear
7:55 AM 77.2 °F - 73.4 °F 88% 29.97 in 10.0 mi North - - N/A   Clear
8:15 AM 79.0 °F - 73.8 °F 84% 29.97 in 10.0 mi North - - N/A   Clear
8:35 AM 82.4 °F 89.5 °F 75.4 °F 79% 29.97 in 10.0 mi North - - N/A   Clear
8:55 AM 85.1 °F 94.9 °F 76.5 °F 75% 29.97 in 10.0 mi North - - N/A   Clear
9:15 AM 85.1 °F 94.1 °F 75.4 °F 73% 29.98 in 10.0 mi North - - N/A   Clear
9:35 AM 85.1 °F 92.6 °F 73.8 °F 69% 29.97 in 10.0 mi North - - N/A   Clear
9:55 AM 86.9 °F 95.0 °F 73.9 °F 65% 29.98 in 10.0 mi SW 8.1 mph - N/A   Clear
10:15 AM 89.1 °F 98.5 °F 74.7 °F 62% 29.98 in 10.0 mi North - - N/A   Clear
10:35 AM 90.0 °F 100.2 °F 74.8 °F 61% 29.97 in 10.0 mi North - - N/A   Clear
10:55 AM 90.0 °F 98.5 °F 73.2 °F 58% 29.98 in 10.0 mi SW 6.9 mph - N/A   Clear
11:15 AM 90.0 °F 96.9 °F 71.8 °F 55% 29.98 in 10.0 mi SW 3.5 mph - N/A   Clear
11:35 AM 92.3 °F 100.3 °F 72.5 °F 52% 29.98 in 10.0 mi North - - N/A   Clear
11:55 AM 92.5 °F 101.3 °F 72.9 °F 53% 29.97 in 10.0 mi North - - N/A   Clear
12:15 PM 92.5 °F 99.0 °F 70.7 °F 49% 29.97 in 10.0 mi North - - N/A   Clear
12:35 PM 95.0 °F 103.2 °F 72.1 °F 47% 29.96 in 10.0 mi SW 4.6 mph - N/A   Scattered Clouds
12:55 PM 95.0 °F 101.9 °F 70.9 °F 45% 29.95 in 10.0 mi North - - N/A   Scattered Clouds
1:15 PM 95.0 °F 102.5 °F 71.1 °F 46% 29.95 in 10.0 mi North - - N/A   Clear
1:35 PM 95.5 °F 102.4 °F 70.5 °F 44% 29.95 in 10.0 mi North - - N/A   Mostly Cloudy
1:55 PM 95.0 °F 101.9 °F 70.5 °F 45% 29.94 in 10.0 mi North - - N/A   Overcast
2:15 PM 95.2 °F 100.5 °F 68.7 °F 42% 29.94 in 10.0 mi North - - N/A   Scattered Clouds
2:35 PM 96.3 °F 100.8 °F 67.8 °F 39% 29.93 in 10.0 mi North - - N/A   Scattered Clouds
2:55 PM 95.0 °F 99.5 °F 67.8 °F 41% 29.92 in 10.0 mi North - - N/A   Overcast
3:15 PM 97.7 °F 103.6 °F 68.9 °F 39% 29.92 in 10.0 mi North - - N/A   Scattered Clouds
3:35 PM 95.0 °F 100.7 °F 69.3 °F 43% 29.91 in 10.0 mi North - - N/A   Scattered Clouds
3:55 PM 96.3 °F 101.4 °F 68.4 °F 40% 29.90 in 10.0 mi North - - N/A   Scattered Clouds
4:15 PM 95.7 °F 100.3 °F 67.8 °F 40% 29.90 in 10.0 mi SW 3.5 mph - N/A   Clear
4:35 PM 97.7 °F 103.6 °F 68.5 °F 39% 29.90 in 10.0 mi North - - N/A   Clear
4:55 PM 96.6 °F 101.5 °F 67.8 °F 39% 29.89 in 10.0 mi North - - N/A   Clear
5:15 PM 96.3 °F 100.2 °F 66.6 °F 38% 29.90 in 10.0 mi North - - N/A   Scattered Clouds
5:35 PM 97.7 °F 101.7 °F 66.4 °F 36% 29.89 in 10.0 mi North - - N/A   Clear
5:55 PM 96.3 °F 100.2 °F 67.1 °F 38% 29.89 in 10.0 mi North - - N/A   Scattered Clouds
6:15 PM 96.1 °F 100.5 °F 67.3 °F 39% 29.88 in 10.0 mi Calm Calm - N/A   Scattered Clouds
6:35 PM 95.0 °F 99.0 °F 67.1 °F 40% 29.88 in 10.0 mi North - - N/A   Clear
6:55 PM 95.0 °F 100.7 °F 69.4 °F 43% 29.89 in 10.0 mi Calm Calm - N/A   Clear
7:15 PM 92.5 °F 99.6 °F 71.6 °F 50% 29.90 in 10.0 mi North - - N/A   Clear
7:35 PM 91.9 °F 101.9 °F 74.1 °F 56% 29.90 in 10.0 mi North - - N/A   Clear
7:55 PM 90.0 °F 99.0 °F 74.1 °F 59% 29.90 in 10.0 mi North - - N/A   Clear
8:15 PM 86.2 °F 93.8 °F 73.8 °F 66% 29.90 in 10.0 mi North - - N/A   Clear
8:35 PM 85.1 °F 92.2 °F 73.6 °F 68% 29.90 in 10.0 mi North - - N/A   Clear
8:55 PM 85.1 °F 93.3 °F 74.7 °F 71% 29.91 in 10.0 mi Calm Calm - N/A   Clear
9:15 PM 85.1 °F 93.3 °F 74.7 °F 71% 29.92 in 10.0 mi Calm Calm - N/A   Clear
9:35 PM 85.1 °F 94.1 °F 75.4 °F 73% 29.92 in 10.0 mi Calm Calm - N/A   Clear
9:55 PM 82.4 °F 88.4 °F 73.9 °F 75% 29.93 in 10.0 mi Calm Calm - N/A   Clear
10:15 PM 82.4 °F 89.5 °F 75.2 °F 79% 29.93 in 10.0 mi Calm Calm - N/A   Clear
10:35 PM 80.1 °F 84.2 °F 73.0 °F 79% 29.93 in 10.0 mi Calm Calm - N/A   Clear
10:55 PM 79.5 °F - 73.4 °F 81% 29.93 in 10.0 mi Calm Calm - N/A   Clear
11:15 PM 78.6 °F - 73.0 °F 83% 29.94 in 10.0 mi North - - N/A   Clear
11:35 PM 79.9 °F - 73.4 °F 80% 29.94 in 10.0 mi North - - N/A   Clear
11:55 PM 80.8 °F 86.1 °F 74.5 °F 81% 29.94 in 10.0 mi North - - N/A   Clear